ブルーイントン彗星

154P/Brewington (2003)

English version
Home page
Updated on August 10, 2013

---------------------------------------------------------------------

・ プロフィール

符号 154P/2002 Q4
検出日 2002年8月26日
発見光度 16.8等
発見者 F. Artigue, H. Cucurullo, G. Trancredi (BUSCA project)

・ 軌道要素

Epoch 2003 Feb. 10.0 TT = JDT 2452680.5
T 2003 Feb. 19.37215 TT                                 MPC
q   1.5903409            (2000.0)            P               Q
n   0.09245138     Peri.   48.00833     +0.84093787     -0.53404318
a   4.8438844      Node   343.64385     +0.35757133     +0.66948956
e   0.6716807      Incl.   18.05972     +0.40616037     +0.51631541
P  10.7
From 343 observations 1992 Aug. 28-2013 Aug. 2, mean residual 1".0.
     Nongravitational parameters A1 = -1.58, A2 = +0.1326.

・ 星図

・ 光度変化

        m1 = 11.6 + 5 logΔ + 10.7 log r  [    ,-100]  (              〜2002年11月11日)
        m1 =  0.0 + 5 logΔ + 50   log r  [-100, 100]  (2002年11月11日〜2003年 5月30日)
        m1 = 11.6 + 5 logΔ + 10.7 log r  [ 100,    ]  (2003年 5月30日〜              )

        ※ 灰色の曲線は、m1 = 11.6 + 5 logΔ + 10.7 log r の光度曲線です。

---------------------------------------------------------------------

軌道要素はM.P.E.C. 2013-P52に掲載されたものです。
星図は StellaNavigator Ver.2.0 for Windows (アストロアーツ 編著 / アスキー出版局刊) で作成したものです。
光度グラフはComet for Windowsで作成したものです。

---------------------------------------------------------------------

Copyright(C) Seiichi Yoshida (comet@aerith.net). All rights reserved.